Location: Hylvaty SDH
(49.9612°N, 16.4057°E)
Time: 19:45:23
(UTC+02:00)

Transit 4A - Pass Details

Date: 14 August 2020
Orbit: 862 x 982 km, 66.8° (Epoch: 28 September)

Event Time Altitude Azimuth Distance (km) Brightness Sun altitude
Rises 18:48:28 0° 318° (NW) 3,660 11.8 12.4°
Reaches altitude 10° 18:51:15 10° 310° (NW) 2,722 11.5 11.9°
Maximum altitude 18:56:49 33° 249° (WSW) 1,591 10.2 11.1°
Drops below altitude 10° 19:02:24 10° 188° (S) 2,728 10.4 10.2°
Sets 19:05:12 0° 179° (S) 3,669 10.9 9.7°
